Location: Eaton
(41.3139°N, 82.0207°W)
Time: 08:05:15
(UTC+00:00)

ARIANE 5 R/B - Pass Details

Date: 17 June 2021
Orbit: 620 x 656 km, 98.1° (Epoch: 16 July)

Event Time Altitude Azimuth Distance (km) Brightness Sun altitude
Exits shadow 02:36:13 22° 144° (SE) 1,392 3.7 -13.9°
Maximum altitude 02:38:54 56° 73° (ENE) 764 2.9 -14.2°
Drops below altitude 10° 02:43:17 10° 356° (N) 2,057 6.1 -14.8°
Sets 02:45:33 0° 352° (N) 2,977 7.1 -15.0°
